Location: Gleizolles
(44.4833°N, 6.7667°E)
Time: 18:21:28
(UTC+00:00)

BEESAT 3 - Visible Passes

Search period start: 30 November 2022 00:00
Search period end: 10 December 2022 00:00
Orbit: 441 x 483 km, 64.9° (Epoch: 29 November)

Date Brightness Start Highest point End Pass type
(mag) Time Alt. Az. Time Alt. Az. Time Alt. Az.
06 Dec ? 18:18:00 10° NNW 18:18:03 10° NNW 18:18:03 10° NNW visible
07 Dec ? 17:45:06 10° NNW 17:46:21 17° N 17:46:21 17° N visible
08 Dec ? 17:12:14 10° N 17:14:46 20° NE 17:14:46 20° NE visible
08 Dec ? 18:48:12 10° NW 18:48:39 13° NW 18:48:39 13° NW visible
09 Dec ? 16:39:27 10° N 16:41:42 15° NE 16:43:25 12° ENE visible
09 Dec ? 18:14:56 10° NW 18:17:19 37° NW 18:17:19 37° NW visible
